Location: Asheville, NC
(35.6000°N, 82.5500°W)
Time: 13:50:33
(UTC-04:00)

FALCONSAT 3 - Pass Details

Date: 18 March 2018
Orbit: 460 x 464 km, 35.4° (Epoch: 18 June)

Event Time Altitude Azimuth Distance (km) Brightness Sun altitude
Exits shadow 05:27:54 24° 115° (ESE) 993 ? -26.6°
Drops below altitude 10° 05:29:29 10° 110° (ESE) 1,602 ? -26.3°
Enters shadow 06:27:16 -67° 296° (WNW) 12,259 ? -14.9°
Sets 07:09:57 0° 138° (SE) 2,469 ? -6.3°
